Regional Weather Roundup
Issued by NWS Wakefield, VA

Home | Current Version | Previous Version | Text Only | Print | Product List | Glossary Off
Versions: 1 2 3 4 5 6 7 8 9 10 11 12 13 14 15 16 17 18 19 20 21 22 23 24 25 26 27 28 29 30 31 32 33 34 35 36 37 38 39 40 41 42 43 44 45 46 47 48 49 50

000
ASUS41 KAKQ 120614
RWRAKQ

REGIONAL WEATHER ROUNDUP
NATIONAL WEATHER SERVICE WAKEFIELD VA
100 AM EST FRI FEB 12 2016

Note: "fair" indicates few or no clouds below 12,000 feet with no
significant weather and/or obstructions to visibility. * = Denotes
station may not report precipitation (e.g., rain,snow,etc.),
thunder or fog.

VAZ042-051-052>054-056-120700-
NORTHERN VIRGINIA

CITY           SKY/WX    TMP DP  RH WIND       PRES   REMARKS
WASH NATIONAL  FAIR      21   2  43 W7        30.36R
DULLES         FAIR      19   4  51 W8        30.33R
FORT BELVOIR   FAIR      18   4  55 W2        30.34S
QUANTICO       FAIR      21   7  54 NW3       30.37S
FREDERICKSBRG* FAIR      21   6  52 NW6       30.33F
STAFFORD*      FAIR      15   8  75 NW3       30.38F
WARRENTON      FAIR      14  11  89 CALM      30.33R
CULPEPER*      FAIR      15   8  73 CALM      30.34S
MANASSAS*      FAIR      14  10  85 CALM      30.34S
LEESBURG*      FAIR      19   9  63 SW3       30.33R
WINCHESTER     FAIR      18   5  57 W5        30.29S
FRONT ROYAL*   FAIR      18   3  53 CALM      30.28S
LURAY*         FAIR      16   5  62 CALM      30.28R
$$

VAZ048-049-060>072-079>083-120700-
CENTRAL AND SOUTH CENTRAL VIRGINIA

CITY           SKY/WX    TMP DP  RH WIND       PRES   REMARKS
RICHMOND       FAIR      20   6  55 CALM      30.34R
CHESTERFIELD*  FAIR      23  -6  28 N7        30.35R
PETERSBURG*    FAIR      19  11  69 CALM      30.35S
HANOVER        FAIR      18   8  65 CALM      30.35R
TAPPAHANNOCK*  FAIR      21   5  50 CALM      30.34S
QUINTON*       FAIR      20   5  50 CALM      30.34R
CHARLOTTSVILLE FAIR      20   1  43 N5        30.30F
GORDONSVILLE*  FAIR      17   6  62 CALM      30.31S
ORANGE*        FAIR      18  10  73 CALM      30.34S
LOUISA*        FAIR      19   3  49 NW5       30.29F
BUMPASS*       FAIR      17   8  66 CALM      30.32S
FARMVILLE*     FAIR      24   9  54 CALM      30.31R
CREWE*         FAIR      23   4  44 CALM      30.32R
FORT PICKETT*  NOT AVBL
CHASE CITY*    FAIR      23   6  48 CALM      30.31S
CLARKSVILLE*   FAIR      27   5  39 CALM      30.30F
SOUTH HILL*    FAIR      23   5  46 N3        30.37S
LAWRENCEVILLE* FAIR      23   6  47 CALM      30.32R
EMPORIA*       FAIR      23   7  50 N5        30.35S
$$

VAZ088>098-120700-
SOUTHEAST VIRGINIA

CITY           SKY/WX    TMP DP  RH WIND       PRES   REMARKS
NORFOLK        FAIR      29   7  39 NW6       30.33R
VIRGINIA BEACH FAIR      30  10  43 N8        30.33R
NORFOLK NAVAL  FAIR      28   7  41 N7        30.35R
WEST POINT*    FAIR      18   9  67 CALM      30.37S
SALUDA*        FAIR      23   7  50 N9        30.34S
NEWPORT NEWS   FAIR      24   5  44 N5        30.35R
LANGLEY AFB    FAIR      24   6  46 N8        30.33R
FORT EUSTIS    FAIR      25   4  41 N5        30.33R
WILLIAMSBURG*  FAIR      25   9  50 CALM      30.36R
HR EXEC AP*    FAIR      25   7  46 CALM      30.35R
FRANKLIN*      FAIR      24   6  47 N3        30.35R
US460-WAKEFLD  FAIR      23   6  48 CALM      30.35R
$$

VAZ020-022-025-037-045-120700-
WEST CENTRAL AND SOUTHWEST VIRGINIA

CITY           SKY/WX    TMP DP  RH WIND       PRES   REMARKS
STAUNTON*      FAIR      15   8  73 CALM      30.27F
WAYNESBORO*    FAIR      14   2  57 CALM      30.23F
HOT SPRINGS VA FAIR       9   2  73 W9        30.00F
LYNCHBURG      FAIR      22   4  46 NE5       30.28S
DANVILLE       FAIR      24  10  55 E3        30.30S
SOUTH BOSTON*  FAIR      21   8  58 CALM      30.31S
MARTINSVILLE   MOCLDY    24   6  46 E3        30.28S
ROANOKE        FAIR      21   6  52 NE5       30.27F
BLACKSBURG     MOCLDY    19   8  64 CALM      30.21S
DUBLIN*        MOCLDY    19  11  71 CALM      30.19F
MARION*        CLOUDY    16  10  77 CALM      30.17F
HILLSVILLE*    CLOUDY    21   6  51 CALM      30.12F
RICHLANDS*     CLOUDY    20   8  60 CALM      30.13F
WISE*          CLOUDY    23   7  50 CALM      30.14F
ABINGDON*      CLOUDY    26  15  63 CALM      30.17F
$$

MDZ021>025-VAZ099-100-120700-
SOUTHERN MARYLAND AND THE DELMARVA PENINSULA

CITY           SKY/WX    TMP DP  RH WIND       PRES   REMARKS
PATUXENT RIVER CLEAR     23   3  42 NW17G23   30.34S WCI   9
BAY BRIDGE APT   N/A     23   1  39 W12       30.34R WCI  12
LEONARDTOWN    CLEAR     21   3  45 NW3       30.35
DOVER          CLEAR     21   6  51 W8        30.30R
GEORGETOWN     CLEAR     20   4  50 W3        30.33R
EASTON         CLEAR     22   4  46 NW7       30.37R
CAMBRIDGE      CLEAR     23   1  39 NW9G20    30.33S
SALISBURY      CLEAR     21   3  45 NW12      30.32S WCI   9
OCEAN CITY     CLEAR     21   4  47 NW10      30.32S WCI  10
WALLOPS ISLAND FAIR      21   3  45 NW6       30.34R
ACCOMACK*      FAIR      25   5  42 N9G17     30.33S
$$

NCZ012>017-030>032-120700-
NORTH CENTRAL AND EASTERN NORTH CAROLINA

CITY           SKY/WX    TMP DP  RH WIND       PRES   REMARKS
ROANOKE RAPIDS FAIR      25  10  54 CALM      30.33R
RALEIGH        PTCLDY    28   5  37 NE6       30.31R
ELIZABETH CITY CLEAR     28  11  48 N9        30.32R
AHOSKIE*       CLEAR     26   8  46 N3        30.34R
EDENTON*       CLEAR     26  17  71 N3        30.33R
CURRITUCK*     CLEAR     28  13  54 N5        30.33R
KILL DEVIL HLS CLEAR     30   9  40 CALM      30.30R
MANTEO         CLEAR     30  12  46 CALM      30.31S
CAPE HATTERAS  CLEAR     35  11  36 VRB5      30.31S
TARBORO*       FAIR      23  21  95 CALM      30.34R
GOLDSBORO      CLEAR     30  12  47 NE6       30.29R
WASHINGTON     CLEAR     25  15  65 N3        30.32F
GREENVILLE     CLEAR     27  16  63 CALM      30.33R
NEW BERN       CLEAR     24  19  81 CALM      30.32R
WILMINGTON     CLEAR     28  24  85 NE3       30.27F
$$

VAZ048-120700-
ELSEWHERE

CITY           SKY/WX    TMP DP  RH WIND       PRES   REMARKS
HARRISBURG PA  PTCLDY    18   4  54 NW13      30.27S WCI   5
BALTIMORE      CLEAR     18   2  49 W7        30.32R
ANNAPOLIS      CLEAR     21   2  43 W10       30.33R WCI  10
ANDREWS AFB    FAIR      20   2  45 W9        30.31R
PHILADELPHIA   CLEAR     21  -4  33 NW14      30.29R WCI   8
HENDERSON NC   CLEAR     24   3  39 CALM      30.31R
GREENSBORO     MOCLDY    26   6  42 E8        30.24F
ROCKY MOUNT    CLEAR     24  16  71 CALM      30.32R
$$

VAZ100-120700-
MARINE

STATION/POSITION TIME  TEMP    WIND        PRES    WAVE   SWELL
                       AIR SEA DIR/SP/G            HT/PER HT/PER
                 (UTC) (F)     (DEG/KT/KT) (MB)    (FT/S) (FT/S)
BRANDYWINE LGT   0500   23     330/ 16/ 25 1025.6R
CAPE MAY NJ      0506   24 37  310/ 13/ 25 1025.4R
LEWES DE         0500   24 37  300/ 16/ 21 1026.1R
15NM E FENWICK I 0550   25 43              1025.9R   5/ 6
OCEAN-CITY-INLET 0500   24 41  340/  9/ 12 1025.7R
WACHAPREAGUE VA  0500   25 39  350/  4/  9 1026.8S
THOMAS POINT MD  0600   22 37  320/ 16/ 17 1027.6
GOOSES REEF MD   0500   24 38  320/ 14/ 17 1028.0S   1/ 3
COVE POINT MD    0500   22     330/  9/ 15 1028.0R
SOLOMONS ISLAND  0506   24 40  320/ 12/ 20   N/A
BISHOPS HEAD MD  0500   23 32  330/ 13/ 19 1026.1R
PINEY POINT MD   0500           10/ 14/ 17   N/A
POTOMAC MD       0500   24 39  340/ 16/ 21 1025.9F   2/ 3
CAMBRIDGE MD     0506   24 37  270/ 15/ 19 1026.3S
LEWISETTA VA     0500   25 38  340/ 13/ 18 1027.0R
RAPPAHANNOCK LGT 0500          320/ 18/ 21 1027.1R
STINGRAY PT      0500   26 40  350/ 14/ 17 1027.2R   2/ 3
YORK RVR RNG VA  0506   28      10/ 16/ 20 1026.1R
YORKTOWN VA      0506   27 41  330/ 11/ 13 1027.0R
JAMESTOWN VA     0500   25 41  360/  6/  8   N/A     0
DOMINION TERM VA 0500   28      10/  6/  9 1027.1R
KIPTOPEKE VA     0500      40   20/  6/ 10   N/A
CHES BAY BRIDGE  0506   30 41  340/ 14/ 16 1026.4R
CAPE HENRY VA    0500   29     350/ 15/ 18   N/A
CHESAPEAKE LGHT  0500   30     360/ 12/ 16 1027.2R
WILLOUBY STN VA  0500   28     360/ 11/ 14 1027.7R
1ST LANDING BUOY 0500      41                N/A     2/ 3
64NM E OF VA BCH 0550   33 49  350/ 16/ 19 1025.8R   5/ 6   2/ 9
DUCK PIER NC     0500   33     330/ 12/ 14 1025.3F
OREGON INLET NC  0506   30 40  340/  5/  6 1026.2F
HATTERAS NC      0506   37 45  340/  8/ 11 1025.7F
DIAMOND SHLS NC  0550   40 61  350/ 10/ 12 1026.5R   3/ 7   3/ 7
$$



USA.gov is the U.S. government's official web portal to all federal, state and local government web resources and services.